Location: Freistadt
(48.5112°N, 14.5013°E)
Time: 10:12:17
(UTC+02:00)

NOAA 16 DEB - Pass Details

Date: 31 May 2024
Orbit: 738 x 810 km, 99.0° (Epoch: 16 June)

Event Time Altitude Azimuth Distance (km) Brightness Sun altitude
Rises 02:39:09 0° 114° (ESE) 3,319 ? -16.1°
Reaches altitude 10° 02:42:13 10° 96° (E) 2,385 ? -15.9°
Maximum altitude 02:45:36 18° 56° (NE) 1,901 ? -15.7°
Drops below altitude 10° 02:48:57 10° 15° (NNE) 2,370 ? -15.4°
Sets 02:51:58 0° 357° (N) 3,290 ? -15.2°
